FW2527 Weather Reports


Display with metric or nautical units.
time (UTC)temp
F
wind
direction
speed
MPH
gust
MPH
rain 1hr
in
rain 24hr
in
rain mn
in
humidity
%
barometer
mb
20260831003048 63 0.0 0.0 0.00 0.00 0.00 86 1007.4
20260831002534 63 0.0 0.0 0.00 0.00 0.00 86 1007.7
20260831002025 63 0.0 0.0 0.00 0.00 0.00 86 1007.5
20260831001546 63 0.0 0.0 0.00 0.00 0.00 86 1007.7
20260831001036 63 0.0 0.0 0.00 0.00 0.00 86 1007.7
20260831000527 63 0.0 0.0 0.00 0.00 0.00 86 1007.7
20260831000047 63 0.0 0.0 0.00 0.00 0.00 86 1007.7
20260830235539 63 0.0 0.0 0.00 0.00 0.00 85 1007.7
20260830235029 63 0.0 0.0 0.00 0.00 0.00 85 1007.7
20260830234558 63 0.0 0.0 0.00 0.00 0.00 85 1007.7
20260830234037 63 0.0 0.0 0.00 0.00 0.00 84 1007.7
20260830233530 63 0.0 0.0 0.00 0.00 0.00 84 1007.7
20260830233047 63 0.0 0.0 0.00 0.00 0.00 84 1007.7
20260830232538 63 0.0 0.0 0.00 0.00 0.00 83 1007.8
20260830232030 63 0.0 0.0 0.00 0.00 0.00 83 1007.8
20260830231550 63 0.0 0.0 0.00 0.00 0.00 82 1007.8
20260830231038 63 0.0 0.0 0.00 0.00 0.00 82 1007.7
20260830230529 64 0.0 0.0 0.00 0.00 0.00 82 1007.8
20260830230049 64 0.0 0.0 0.00 0.22 0.00 82 1007.9
20260830225539 64 0.0 0.0 0.00 0.22 0.00 82 1007.8
20260830225029 64 0.0 0.0 0.00 0.22 0.00 81 1008.0
20260830224554 64 0.0 0.0 0.00 0.22 0.00 81 1008.0
20260830224040 64 0.0 0.0 0.00 0.22 0.00 81 1008.0
20260830223533 64 0.0 0.0 0.00 0.22 0.00 80 1008.1
20260830223049 65 0.0 0.0 0.00 0.22 0.00 80 1008.1
20260830222539 65 0.0 0.0 0.00 0.22 0.00 80 1008.1
20260830222030 65 0.0 0.0 0.00 0.22 0.00 79 1008.2
20260830221550 65 0.0 0.0 0.00 0.22 0.00 79 1008.2
20260830221043 65 0.0 0.0 0.00 0.22 0.00 79 1008.3
20260830220530 65 0.0 0.0 0.00 0.22 0.00 79 1008.3
20260830220056 65 0.0 0.0 0.00 0.37 0.22 79 1008.3
20260830215542 65 0.0 0.0 0.00 0.37 0.22 79 1008.3
20260830215033 65 0.0 0.0 0.00 0.37 0.22 80 1008.3
20260830214614 65 0.0 0.0 0.00 0.37 0.22 80 1008.4
20260830214042 65 0.0 0.0 0.00 0.37 0.22 81 1008.5
20260830213532 64 0.0 0.0 0.00 0.37 0.22 82 1008.4
20260830213052 64 0.0 0.0 0.00 0.37 0.22 83 1008.5
20260830212542 64 0.0 0.0 0.00 0.37 0.22 84 1008.5
20260830212033 63 0.0 0.0 0.00 0.37 0.22 85 1008.5
20260830211557 63 0.0 0.0 0.00 0.37 0.22 85 1008.7
20260830211044 63 0.0 0.0 0.00 0.37 0.22 86 1008.7
20260830210534 63 0.0 0.0 0.00 0.37 0.22 86 1008.6
20260830210055 63 0.0 0.0 0.00 0.38 0.22 86 1008.6
20260830205544 63 0.0 0.0 0.00 0.38 0.22 86 1008.6
20260830205034 63 0.0 0.0 0.00 0.38 0.22 86 1008.5
20260830204554 63 0.0 0.0 0.00 0.38 0.22 86 1008.6
20260830204046 63 0.0 0.0 0.00 0.38 0.22 86 1008.7
20260830203534 63 0.0 0.0 0.00 0.38 0.22 86 1008.7
20260830203055 63 0.0 0.0 0.00 0.38 0.22 86 1008.7
20260830202544 63 0.0 0.0 0.00 0.38 0.22 86 1008.7
20260830202034 63 0.0 0.0 0.00 0.38 0.22 86 1008.8
20260830201555 64 0.0 0.0 0.00 0.38 0.22 86 1008.7
20260830201044 64 0.0 0.0 0.00 0.38 0.22 86 1008.7
20260830200535 64 0.0 0.0 0.00 0.38 0.22 86 1008.8
20260830195545 64 0.0 0.0 0.00 0.38 0.22 86 1008.8
20260830195035 64 0.0 0.0 0.00 0.38 0.22 86 1008.9
20260830194504 64 0.0 0.0 0.00 0.38 0.22 85 1009.0
20260830194056 64 0.0 0.0 0.00 0.38 0.22 85 1009.0
20260830193545 64 0.0 0.0 0.00 0.38 0.22 85 1009.0
20260830193126 64 0.0 0.0 0.00 0.38 0.22 84 1008.9
20260830192545 64 0.0 0.0 0.00 0.38 0.22 84 1008.9
20260830192035 64 0.0 0.0 0.00 0.38 0.22 83 1009.1
20260830191556 65 0.0 0.0 0.00 0.38 0.22 83 1009.0
20260830191046 65 0.0 0.0 0.00 0.38 0.22 83 1009.0
20260830190537 65 0.0 0.0 0.00 0.38 0.22 82 1009.1
20260830190057 65 0.0 0.0 0.00 0.50 0.22 82 1009.1
20260830185548 66 0.0 0.0 0.00 0.50 0.22 81 1009.1
20260830185036 66 0.0 0.0 0.00 0.50 0.22 81 1009.1
20260830184558 66 0.0 0.0 0.00 0.50 0.22 80 1009.1
20260830184047 66 0.0 0.0 0.00 0.50 0.22 80 1009.0
20260830183538 67 0.0 0.0 0.00 0.50 0.22 80 1009.0
20260830183058 67 0.0 0.0 0.00 0.50 0.22 79 1009.1
20260830182548 68 0.0 0.0 0.00 0.50 0.22 78 1009.1
20260830182038 68 0.0 0.0 0.00 0.50 0.22 77 1009.2
20260830181559 68 0.0 0.0 0.00 0.50 0.22 77 1009.2
20260830181048 69 0.0 0.0 0.00 0.50 0.22 76 1009.3
20260830180535 69 0.0 0.0 0.00 0.50 0.22 76 1009.3
20260830180057 69 0.0 0.0 0.00 0.61 0.22 75 1009.1
20260830175546 69 0.0 0.0 0.00 0.61 0.22 75 1009.3
20260830175036 69 0.0 0.0 0.00 0.61 0.22 74 1009.3
20260830174614 69 0.0 0.0 0.00 0.61 0.22 74 1009.3
20260830174047 69 0.0 0.0 0.00 0.61 0.22 74 1009.4
20260830173537 70 0.0 0.0 0.00 0.61 0.22 73 1009.4
20260830173113 70 0.0 0.0 0.00 0.61 0.22 73 1009.3
20260830172548 70 0.0 0.0 0.00 0.61 0.22 73 1009.3
20260830172038 70 0.0 0.0 0.00 0.61 0.22 73 1009.3
20260830171602 70 0.0 0.0 0.00 0.61 0.22 73 1009.4
20260830171049 70 0.0 0.0 0.00 0.61 0.22 72 1009.4
20260830170539 70 0.0 0.0 0.00 0.61 0.22 72 1009.4
20260830170100 70 0.0 0.0 0.00 0.61 0.22 72 1009.5
20260830165549 70 0.0 0.0 0.00 0.61 0.22 71 1009.7
20260830165039 70 0.0 0.0 0.00 0.61 0.22 71 1009.6
20260830164603 71 0.0 0.0 0.00 0.61 0.22 71 1009.6
20260830164051 71 0.0 0.0 0.00 0.61 0.22 71 1009.6
20260830163541 71 0.0 0.0 0.00 0.61 0.22 71 1009.6
20260830163101 71 0.0 0.0 0.00 0.61 0.22 70 1009.6
20260830162551 71 0.0 0.0 0.00 0.61 0.22 70 1009.5
20260830162040 71 0.0 0.0 0.00 0.61 0.22 70 1009.6
20260830161602 71 0.0 0.0 0.00 0.61 0.22 69 1009.5
20260830161051 72 0.0 0.0 0.00 0.61 0.22 69 1009.6
20260830160544 72 0.0 0.0 0.00 0.61 0.22 69 1009.7
20260830155551 72 0.0 0.0 0.00 0.61 0.22 69 1009.5
20260830155044 72 0.0 0.0 0.00 0.61 0.22 70 1009.4
20260830154602 72 0.0 0.0 0.00 0.61 0.22 69 1009.5
20260830154051 72 0.0 0.0 0.00 0.61 0.22 68 1009.6
20260830153540 73 0.0 0.0 0.00 0.61 0.22 68 1009.4
20260830153103 72 0.0 0.0 0.00 0.61 0.22 69 1009.4
20260830152551 72 0.0 0.0 0.00 0.61 0.22 69 1009.6
20260830152041 72 0.0 0.0 0.00 0.61 0.22 70 1009.5
20260830151500 72 0.0 0.0 0.00 0.61 0.22 68 1009.5
20260830151052 73 0.0 0.0 0.00 0.61 0.22 69 1009.6
20260830150542 72 0.0 0.0 0.00 0.61 0.22 69 1009.6
20260830150001 72 0.0 0.0 0.00 0.64 0.22 68 1009.6
20260830145553 72 0.0 0.0 0.00 0.64 0.22 68 1009.5
20260830145042 72 0.0 0.0 0.00 0.64 0.22 69 1009.6
20260830144513 72 0.0 0.0 0.00 0.64 0.22 69 1009.6
20260830144002 73 0.0 0.0 0.00 0.64 0.22 68 1009.5
20260830143557 73 0.0 0.0 0.00 0.64 0.22 68 1009.5
20260830143034 73 0.0 0.0 0.00 0.64 0.22 68 1009.4
20260830142514 73 0.0 0.0 0.00 0.64 0.22 70 1009.5
20260830142003 73 0.0 0.0 0.00 0.64 0.22 70 1009.3
20260830141525 72 0.0 0.0 0.00 0.64 0.22 71 1009.3
20260830141013 72 0.0 0.0 0.00 0.64 0.22 71 1009.3
20260830140504 72 0.0 0.0 0.00 0.64 0.22 71 1009.4
20260830140023 72 0.0 0.0 0.00 0.64 0.22 71 1009.2
20260830135513 72 0.0 0.0 0.00 0.64 0.22 72 1009.2
20260830135007 72 0.0 0.0 0.00 0.64 0.22 70 1009.3
20260830134534 72 0.0 0.0 0.00 0.64 0.22 68 1009.3
20260830134025 73 0.0 0.0 0.00 0.64 0.22 68 1009.2
20260830133515 73 0.0 0.0 0.00 0.64 0.22 68 1009.1
20260830133034 74 0.0 0.0 0.00 0.64 0.22 68 1009.2
20260830132524 74 0.0 0.0 0.00 0.64 0.22 68 1009.1
20260830132014 73 0.0 0.0 0.00 0.64 0.22 68 1009.2
20260830131536 73 0.0 0.0 0.00 0.64 0.22 69 1009.3
20260830131025 73 0.0 0.0 0.00 0.64 0.22 70 1009.1
20260830130515 72 0.0 0.0 0.00 0.64 0.22 71 1009.2
20260830130045 71 0.0 0.0 0.00 0.64 0.22 73 1009.1
20260830125535 69 0.0 0.0 0.00 0.64 0.22 76 1009.2
20260830125030 69 0.0 0.0 0.00 0.64 0.22 77 1009.1
20260830124546 69 0.0 0.0 0.00 0.64 0.22 77 1009.1
20260830124036 69 0.0 0.0 0.00 0.64 0.22 77 1009.1
20260830123529 69 0.0 0.0 0.00 0.64 0.22 77 1009.0
20260830123046 69 0.0 0.0 0.00 0.64 0.22 77 1009.1
20260830122536 69 0.0 0.0 0.00 0.64 0.22 77 1009.0
20260830122030 69 0.0 0.0 0.00 0.64 0.22 77 1009.1
20260830121548 69 0.0 0.0 0.00 0.64 0.22 77 1009.0
20260830121037 69 0.0 0.0 0.00 0.64 0.22 77 1008.9
20260830120527 69 0.0 0.0 0.00 0.64 0.22 77 1008.9
20260830120052 69 0.0 0.0 0.00 0.64 0.22 77 1008.9
20260830115538 69 0.0 0.0 0.00 0.64 0.22 77 1008.9
20260830115028 69 0.0 0.0 0.00 0.64 0.22 77 1008.8
20260830114607 69 0.0 0.0 0.00 0.64 0.22 77 1008.8
20260830114038 69 0.0 0.0 0.00 0.64 0.22 77 1008.7
20260830113528 69 0.0 0.0 0.00 0.64 0.22 77 1008.7
20260830113048 69 0.0 0.0 0.00 0.64 0.22 77 1008.7
20260830112538 69 0.0 0.0 0.00 0.64 0.22 77 1008.6
20260830112028 69 0.0 0.0 0.00 0.64 0.22 77 1008.7
20260830111551 69 0.0 0.0 0.00 0.64 0.22 77 1008.5
20260830111040 69 0.0 0.0 0.00 0.64 0.22 78 1008.6
20260830110533 69 0.0 0.0 0.00 0.64 0.22 79 1008.6
20260830110050 69 0.0 0.0 0.00 0.64 0.22 80 1008.5
20260830105541 68 0.0 0.0 0.00 0.64 0.22 82 1008.5
20260830105030 67 0.0 0.0 0.00 0.64 0.22 83 1008.5
20260830104605 66 0.0 0.0 0.00 0.64 0.22 84 1008.5
20260830104041 66 0.0 0.0 0.00 0.64 0.22 84 1008.4
20260830103531 66 0.0 0.0 0.00 0.64 0.22 84 1008.5
20260830103055 66 0.0 0.0 0.00 0.64 0.22 83 1008.5
20260830102541 66 0.0 0.0 0.00 0.64 0.22 84 1008.5
20260830102031 66 0.0 0.0 0.00 0.64 0.22 84 1008.5
20260830101552 66 0.0 0.0 0.00 0.64 0.22 84 1008.4
20260830101042 66 0.0 0.0 0.00 0.64 0.22 85 1008.5
20260830100532 66 0.0 0.0 0.00 0.64 0.22 85 1008.3
20260830100055 65 0.0 0.0 0.00 0.64 0.22 85 1008.4
20260830095542 65 0.0 0.0 0.00 0.64 0.22 85 1008.4
20260830095032 65 0.0 0.0 0.00 0.64 0.22 85 1008.4
20260830094554 65 0.0 0.0 0.00 0.64 0.22 85 1008.2
20260830094043 65 0.0 0.0 0.00 0.64 0.22 85 1008.2
20260830093535 65 0.0 0.0 0.00 0.64 0.22 86 1008.2
20260830093101 65 0.0 0.0 0.00 0.64 0.22 86 1008.1
20260830092543 65 0.0 0.0 0.00 0.64 0.22 86 1008.1
20260830092033 65 0.0 0.0 0.00 0.64 0.22 86 1008.1
20260830091554 64 0.0 0.0 0.00 0.64 0.22 86 1008.1
20260830091044 64 0.0 0.0 0.00 0.64 0.22 86 1008.1
20260830090536 64 0.0 0.0 0.00 0.64 0.22 86 1008.0
20260830090055 64 0.0 0.0 0.00 0.64 0.22 86 1007.9
20260830085544 64 0.0 0.0 0.00 0.64 0.22 86 1007.7
20260830085036 64 0.0 0.0 0.00 0.64 0.22 86 1007.7
20260830084503 64 0.0 0.0 0.00 0.64 0.22 86 1007.7
20260830084056 64 0.0 0.0 0.00 0.64 0.22 85 1007.7
20260830083546 64 0.0 0.0 0.00 0.64 0.22 85 1007.7
20260830083005 64 0.0 0.0 0.00 0.64 0.22 85 1007.6
20260830082557 64 0.0 0.0 0.00 0.64 0.22 85 1007.6
20260830082046 64 0.0 0.0 0.00 0.64 0.22 85 1007.5
20260830081504 64 0.0 0.0 0.00 0.64 0.22 85 1007.3
20260830081056 64 0.0 0.0 0.00 0.64 0.22 85 1007.3
20260830080546 64 0.0 0.0 0.00 0.64 0.22 85 1007.2
20260830080004 64 0.0 0.0 0.00 0.64 0.22 86 1007.2
20260830075556 64 0.0 0.0 0.00 0.64 0.22 86 1007.1
20260830075045 64 0.0 0.0 0.00 0.64 0.22 86 1007.0
20260830074557 63 0.0 0.0 0.00 0.64 0.22 87 1007.1
20260830074046 63 0.0 0.0 0.00 0.64 0.22 87 1006.9
20260830073536 63 0.0 0.0 0.00 0.64 0.22 88 1006.9
20260830073103 63 0.0 0.0 0.00 0.64 0.22 88 1007.0
20260830072548 63 0.0 0.0 0.00 0.64 0.22 88 1006.9
20260830072038 63 0.0 0.0 0.00 0.64 0.22 88 1006.9
20260830071620 63 0.0 0.0 0.00 0.64 0.22 88 1006.8
20260830071049 63 0.0 0.0 0.00 0.64 0.22 88 1006.7
20260830070541 63 0.0 0.0 0.00 0.64 0.22 88 1006.7
20260830070059 63 0.0 0.0 0.00 0.64 0.22 88 1006.7
20260830065548 63 0.0 0.0 0.00 0.64 0.22 87 1006.7
20260830065038 63 0.0 0.0 0.00 0.64 0.22 87 1006.6
20260830064602 63 0.0 0.0 0.00 0.64 0.22 87 1006.5
20260830064049 63 0.0 0.0 0.00 0.64 0.22 86 1006.5
20260830063539 63 0.0 0.0 0.00 0.64 0.22 86 1006.4
20260830063101 63 0.0 0.0 0.00 0.64 0.22 86 1006.4
20260830062552 63 0.0 0.0 0.00 0.64 0.22 86 1006.3
20260830062041 63 0.0 0.0 0.00 0.64 0.22 86 1006.3
20260830061513 63 0.0 0.0 0.00 0.64 0.22 85 1006.1
20260830061103 64 0.0 0.0 0.00 0.64 0.22 85 1006.1
20260830060552 64 0.0 0.0 0.00 0.64 0.22 85 1006.1
20260830055552 64 0.0 0.0 0.00 0.64 0.22 85 1006.0
20260830055041 64 0.0 0.0 0.00 0.64 0.22 85 1005.9
20260830054503 64 0.0 0.0 0.00 0.64 0.22 85 1005.8
20260830054056 64 0.0 0.0 0.00 0.64 0.22 84 1005.9
20260830053542 64 0.0 0.0 0.00 0.64 0.22 84 1005.7
20260830053004 64 0.0 0.0 0.00 0.64 0.22 84 1005.7
20260830052554 64 0.0 0.0 0.00 0.64 0.22 84 1005.7
20260830052045 64 0.0 0.0 0.00 0.64 0.22 85 1005.6
20260830051505 64 0.0 0.0 0.00 0.64 0.22 85 1005.6
20260830051056 64 0.0 0.0 0.00 0.64 0.22 85 1005.5
20260830050545 63 0.0 0.0 0.00 0.64 0.22 85 1005.5
20260830050004 63 0.0 0.0 0.00 0.64 0.22 85 1005.4
20260830045555 63 0.0 0.0 0.00 0.64 0.22 85 1005.4
20260830045048 63 0.0 0.0 0.00 0.64 0.22 85 1005.3
20260830044503 63 0.0 0.0 0.00 0.64 0.22 85 1005.2
20260830044055 63 0.0 0.0 0.00 0.64 0.22 86 1005.3
20260830043545 63 0.0 0.0 0.00 0.64 0.22 86 1005.2
20260830043004 63 0.0 0.0 0.00 0.64 0.22 86 1005.2
20260830042556 63 0.0 0.0 0.00 0.64 0.22 86 1005.1
20260830042046 63 0.0 0.0 0.00 0.64 0.22 86 1005.2
20260830041600 63 0.0 0.0 0.00 0.64 0.22 86 1005.2
20260830041046 63 0.0 0.0 0.00 0.64 0.22 86 1005.1
20260830040536 63 0.0 0.0 0.00 0.64 0.22 86 1005.1
20260830040101 63 0.0 0.0 0.00 0.64 0.22 86 1005.1
20260830035547 64 0.0 0.0 0.00 0.64 0.22 85 1005.1
20260830035040 64 0.0 0.0 0.00 0.64 0.22 85 1005.2
20260830034555 64 0.0 0.0 0.00 0.64 0.22 85 1005.1
20260830034045 64 0.0 0.0 0.00 0.64 0.22 85 1005.1
20260830033534 64 0.0 0.0 0.00 0.64 0.22 85 1005.0
20260830033058 63 0.0 0.0 0.00 0.64 0.22 85 1005.0
20260830032542 63 0.0 0.0 0.00 0.64 0.22 84 1004.9
20260830032033 63 0.0 0.0 0.00 0.64 0.22 84 1004.9
20260830031601 64 0.0 0.0 0.00 0.64 0.22 84 1004.9
20260830031045 64 0.0 0.0 0.00 0.64 0.22 84 1004.8
20260830030535 64 0.0 0.0 0.00 0.64 0.22 83 1004.8
20260830030059 64 0.0 0.0 0.00 0.64 0.22 83 1004.8
20260830025544 64 0.0 0.0 0.00 0.64 0.22 84 1004.8
20260830025034 64 0.0 0.0 0.00 0.64 0.22 83 1004.8
20260830024625 64 0.0 0.0 0.00 0.64 0.22 83 1004.8
20260830024045 64 0.0 0.0 0.00 0.64 0.22 83 1004.7
20260830023535 64 0.0 0.0 0.00 0.64 0.22 83 1004.8
20260830023058 64 0.0 0.0 0.00 0.64 0.22 83 1004.7
20260830022545 64 0.0 0.0 0.00 0.64 0.22 84 1004.7
20260830022038 64 0.0 0.0 0.00 0.64 0.22 84 1004.7
20260830021558 64 0.0 0.0 0.00 0.64 0.22 84 1004.6
20260830021047 64 0.0 0.0 0.00 0.64 0.22 84 1004.6
20260830020539 64 0.0 0.0 0.00 0.64 0.22 84 1004.6
20260830020100 64 0.0 0.0 0.00 0.64 0.22 84 1004.6
20260830015546 64 0.0 0.0 0.00 0.64 0.22 84 1004.6
20260830015036 64 0.0 0.0 0.00 0.64 0.22 84 1004.6
20260830014558 64 0.0 0.0 0.00 0.64 0.22 85 1004.7
20260830014048 64 0.0 0.0 0.00 0.64 0.22 85 1004.6
20260830013537 64 0.0 0.0 0.00 0.64 0.22 85 1004.6
20260830013129 64 0.0 0.0 0.00 0.64 0.22 85 1004.6
20260830012548 64 0.0 0.0 0.00 0.64 0.22 86 1004.7
20260830012038 64 0.0 0.0 0.00 0.64 0.22 86 1004.5
20260830011624 64 0.0 0.0 0.00 0.64 0.22 86 1004.5
20260830011049 64 0.0 0.0 0.00 0.64 0.22 86 1004.4
20260830010539 64 0.0 0.0 0.00 0.64 0.22 86 1004.3
20260830010059 64 0.0 0.0 0.00 0.64 0.22 87 1004.3
20260830005549 64 0.0 0.0 0.00 0.64 0.22 87 1004.2
20260830005039 64 0.0 0.0 0.00 0.64 0.22 88 1004.3
20260830004600 64 0.0 0.0 0.00 0.64 0.22 88 1004.2
20260830004051 64 0.0 0.0 0.00 0.64 0.22 89 1004.2
20260830003540 64 0.0 0.0 0.00 0.64 0.22 89 1004.1